Location: Unspecified
(0.0000°N, 0.0000°E)
Time: 17:54:01
(UTC+00:00)

Vanguard 3 - Pass Details

Date: 08 February 2023
Orbit: 509 x 3249 km, 33.3° (Epoch: 20 March)

Event Time Altitude Azimuth Distance (km) Brightness Sun altitude
Rises 06:01:57 0° 249° (WSW) 6,744 11.3 -2.9°
Maximum altitude 06:15:24 10° 206° (SSW) 4,663 10.9 0.3°
Drops below altitude 10° 06:17:10 10° 198° (SSW) 4,518 10.9 0.7°
Sets 06:25:10 0° 159° (SSE) 4,628 11.6 2.7°
